Volver al catálogo

COSMOS 2251 DEB

ActivoLEO
NORAD 35028·DEBRIS·🇷🇺 Russia

Lanzado Jun 16, 1993 desde Plesetsk Cosmodrome

Loading…

Próximos Pases (próximas 24 horas)

TLE

ActualizadoSource: Space-Track

Época: Sep 13, 2026, 08:48 UTC

1 35028U 93036AGR 26256.36695105  .00000203  00000-0  49983-4 0  9997
2 35028  74.0364 109.7274 0083214 175.4016 357.7097 14.56763628922847

Sigue COSMOS 2251 DEB en tiempo real con AllMySat

Download on the App Store